Regional Weather Roundup
Issued by NWS Sioux Falls, SD

Home | Current Version | Previous Version | Text Only | Print | Product List | Glossary On
Versions: 1 2 3 4 5 6 7 8 9 10 11 12 13 14 15 16 17 18 19 20 21 22 23 24 25 26 27 28 29 30 31 32 33 34 35 36 37 38 39 40 41 42 43 44 45 46 47 48 49 50
000
ASUS43 KFSD 010002
RWRFSD

WEATHER ROUNDUP FOR SE SOUTH DAKOTA/SW MINNESOTA/NW IOWA
NATIONAL WEATHER SERVICE SIOUX FALLS SD
700 PM CDT SAT APR 30 2016

NOTE: "FAIR" INDICATES FEW OR NO CLOUDS BELOW 12,000 FEET WITH NO
SIGNIFICANT WEATHER AND OR OBSTRUCTIONS TO VISIBILITY.


SDZ038>040-050-052>070-010100-
SOUTHEAST SOUTH DAKOTA

CITY           SKY/WX    TMP DP  RH WIND       PRES   REMARKS
BROOKINGS      LGT RAIN  48  38  68 E17G30    30.03R
CHAMBERLAIN    NOT AVBL
HURON          CLOUDY    51  37  58 NE12      30.05R
6HR MIN TEMP:  50; 6HR MAX TEMP:  52;

MADISON        LGT RAIN  43  43 100 E16G25    30.02R
MITCHELL       LGT RAIN  45  43  93 NE12      30.04R
6HR MIN TEMP:  44; 6HR MAX TEMP:  46; 6HR PCP:  0.57;

SIOUX FALLS    LGT RAIN  44  40  85 NE20G29   29.99R
6HR MIN TEMP:  43; 6HR MAX TEMP:  45; 6HR PCP:  0.27;

WINNER         LGT RAIN  43  38  82 NE23G37   30.03R
YANKTON        CLOUDY    45  41  87 NE21      29.93R
$$

MNZ071-072-080-081-089-090-097-098-010100-
SOUTHWEST MINNESOTA

CITY           SKY/WX    TMP DP  RH WIND       PRES   REMARKS
FAIRMONT       CLOUDY    45  34  65 NE17G23   29.99R
JACKSON        LGT RAIN  43  41  93 NE23G31   29.99R
LUVERNE        CLOUDY    43  37  81 E20G28    29.99R
MARSHALL       CLOUDY    48  40  73 SE9       30.04R
6HR MIN TEMP:  48; 6HR MAX TEMP:  53;

MONTEVIDEO     CLOUDY    55  36  47 E15G23    30.07S
REDWOOD FALLS  CLOUDY    54  35  48 E9        30.03R
TRACY          LGT RAIN  46  42  86 E15G21    30.03S
WINDOM         LGT RAIN  45  41  87 E18G25    30.01R
WORTHINGTON    LGT RAIN  43  39  86 NE25G31   29.99R
$$

IAZ001>003-012>014-020>022-031-032-NEZ013-014-SDZ071-010100-
NORTHWEST IOWA

CITY           SKY/WX    TMP DP  RH WIND       PRES   REMARKS
DENISON        CLOUDY    46  46 100 E22G30    29.82S FOG
ESTHERVILLE    CLOUDY    43  41  93 NE26      29.97R
SIOUX CITY     LGT RAIN  47  43  86 E23G32    29.87R
6HR MIN TEMP:  47; 6HR MAX TEMP:  49; 6HR PCP:  0.04;

SPENCER        LGT RAIN  43  40  89 E26G37    29.96R FOG
6HR MIN TEMP:  43; 6HR MAX TEMP:  45; 6HR PCP:  0.21;

STORM LAKE     CLOUDY    43  43 100 E26G35    29.89S FOG
$$

ABBREVIATIONS USED IN REMARKS
   TC - TEMPERATURE IN CELSIUS
  WCI - WIND CHILL INDEX
   HX - HEAT INDEX
  VSB - VISIBILITY




USA.gov is the U.S. government's official web portal to all federal, state and local government web resources and services.